Hourly Data Report for September 02, 2017

All times are specified in Local Standard Time (LST). Add 1 hour to adjust for Daylight Saving Time where and when it is observed.

EAST POINT (AUT)
PRINCE EDWARD ISLAND

46°27'36.000" N
61°59'18.000" W
7.70 m
8300418
71412
WEP

Download Data

Hourly Data (September 2017)
Hourly Data Report for September 2, 2017
Temp Definition
°C
Dew Point Temp Definition
°C
Rel Hum Definition
%
Wind Dir Definition
10's deg

Wind Spd Definition
km/h
Visibility Definition
km
Stn Press Definition
kPa
Hmdx Definition


Wind Chill Definition


Weather Definition


TIME
00:00 9.2 6.8 85 24 17   100.62     LegendNANA
01:00 9.4 7.4 88 22 14   100.61     LegendNANA
02:00 9.7 8.2 91 23 18   100.64     LegendNANA
03:00 12.3 10.4 88 28 40   100.64     LegendNANA
04:00 12.4 9.5 83 29 48   100.71     LegendNANA
05:00 12.6 8.6 76 30 45   100.84     LegendNANA
06:00 12.8 8.0 73 30 40   100.94     LegendNANA
07:00 13.1 8.3 73 30 38   101.01     LegendNANA
08:00 13.4 8.4 72 31 40   101.10     LegendNANA
09:00 12.4 8.7 78 31 39   101.17     LegendNANA
10:00 13.1 7.8 71 30 37   101.24     LegendNANA
11:00 12.3 10.0 86 32 35   101.32     LegendNANA
12:00 13.4 10.7 84 30 42   101.35     LegendNANA
13:00 12.6 10.3 86 31 42   101.43     LegendNANA
14:00 13.1 10.2 83 30 37   101.50     LegendNANA
15:00 13.3 10.2 82 31 40   101.56     LegendNANA
16:00 13.4 10.3 82 31 33   101.66     LegendNANA
17:00 13.9 9.2 73 31 37   101.72     LegendNANA
18:00 13.8 9.0 73 31 35   101.77     LegendNANA
19:00 14.1 9.3 73 32 33   101.86     LegendNANA
20:00 14.2 8.8 70 33 30   101.99     LegendNANA
21:00 14.1 9.0 71 32 25   102.06     LegendNANA
22:00 14.0 9.0 72 33 23   102.10     LegendNANA
23:00 13.9 8.7 71 32 17   102.13     LegendNANA

Notes on Data Quality.

Legend

  • E = Estimated
  • M = Missing
  • NA = Not Available
  • ‡ = Partner data that is not subject to review by the National Climate Archives
Date modified: